FW6591 Weather Reports


Display with metric or nautical units.
time (UTC)temp
F
wind
direction
speed
MPH
gust
MPH
rain 1hr
in
rain 24hr
in
rain mn
in
humidity
%
barometer
mb
20260902031557 53 196 2.0 6.0 0.00 0.00 0.00 92 1025.6
20260902030043 52 184 2.0 4.0 0.00 0.00 0.00 91 1025.6
20260902024557 52 209 1.0 4.0 0.00 0.00 0.00 90 1025.5
20260902023104 52 203 1.0 3.0 0.00 0.00 0.00 90 1025.2
20260902021608 52 212 1.0 2.0 0.00 0.00 0.00 88 1025.3
20260902020055 52 205 1.0 2.0 0.00 0.00 0.00 88 1025.3
20260902014553 52 316 0.0 2.0 0.00 0.00 0.00 88 1025.3
20260902013048 51 227 0.0 2.0 0.00 0.00 0.00 89 1025.3
20260902011548 50 190 0.0 2.0 0.00 0.00 0.00 87 1025.5
20260902010057 51 197 2.0 3.0 0.00 0.00 0.00 84 1025.2
20260902004558 53 197 1.0 2.0 0.00 0.00 0.00 83 1025.2
20260902003056 53 232 0.0 2.0 0.00 0.00 0.00 83 1025.0
20260902001547 53 0 0.0 2.0 0.00 0.00 0.00 79 1025.1
20260902000054 53 344 2.0 6.0 0.00 0.00 0.00 79 1025.0
20260901234611 54 10 0.0 2.0 0.00 0.00 0.00 79 1025.1
20260901233055 55 57 0.0 2.0 0.00 0.00 0.00 77 1025.2
20260901231551 56 360 0.0 2.0 0.00 0.00 0.00 76 1025.1
20260901230123 57 360 0.0 2.0 0.00 0.00 0.00 75 1025.0
20260901224556 57 0 0.0 4.0 0.00 0.00 0.00 73 1025.0
20260901223113 58 188 1.0 1.0 0.00 0.00 0.00 71 1025.0
20260901221549 58 192 2.0 3.0 0.00 0.00 0.00 71 1025.2
20260901214556 58 202 1.0 3.0 0.00 0.00 0.00 70 1025.2
20260901213053 60 0 0.0 2.0 0.00 0.00 0.00 67 1025.2
20260901211559 61 126 1.0 2.0 0.00 0.00 0.00 64 1025.1
20260901210101 62 196 4.0 8.0 0.00 0.00 0.00 62 1024.9
20260901204555 61 194 4.0 6.0 0.00 0.00 0.00 63 1024.6
20260901203054 60 231 0.0 7.0 0.00 0.00 0.00 64 1024.1
20260901201604 58 346 4.0 7.0 0.00 0.00 0.00 68 1023.8
20260901200105 59 342 3.0 5.0 0.00 0.00 0.00 66 1023.7
20260901194605 59 13 4.0 8.0 0.00 0.00 0.00 67 1023.9
20260901193053 60 347 6.0 11.0 0.00 0.00 0.00 67 1024.0
20260901191549 62 349 5.0 9.0 0.00 0.00 0.00 62 1024.2
20260901190106 62 10 1.0 5.0 0.00 0.00 0.00 62 1024.4
20260901184553 63 360 3.0 6.0 0.00 0.00 0.00 61 1024.7
20260901183050 64 360 2.0 5.0 0.00 0.00 0.00 58 1024.4
20260901181554 64 9 2.0 4.0 0.00 0.00 0.00 59 1024.2
20260901180055 66 9 0.0 2.0 0.00 0.00 0.00 57 1024.3
20260901174551 66 0 0.0 2.0 0.00 0.00 0.00 56 1024.5
20260901173104 67 9 1.0 2.0 0.00 0.00 0.00 54 1024.1
20260901171554 69 0 0.0 2.0 0.00 0.00 0.00 51 1024.2
20260901170050 70 121 0.0 2.0 0.00 0.00 0.00 49 1024.1
20260901164626 71 0 0.0 2.0 0.00 0.00 0.00 49 1024.0
20260901163056 70 157 1.0 2.0 0.00 0.00 0.00 49 1023.8
20260901161551 71 193 0.0 2.0 0.00 0.00 0.00 50 1023.7
20260901160050 72 0 0.0 2.0 0.00 0.00 0.00 47 1023.6
20260901154545 73 158 0.0 2.0 0.00 0.00 0.00 48 1023.5
20260901153054 75 0 0.0 2.0 0.00 0.00 0.00 46 1023.2
20260901151555 77 0 0.0 0.0 0.00 0.00 0.00 43 1023.0
20260901150046 78 0 0.0 2.0 0.00 0.00 0.00 44 1023.0
20260901144559 78 161 0.0 2.0 0.00 0.00 0.00 46 1022.9
20260901143055 78 0 0.0 2.0 0.00 0.00 0.00 39 1022.9
20260901141556 79 190 0.0 3.0 0.00 0.00 0.00 39 1022.7
20260901140048 79 163 0.0 6.0 0.00 0.00 0.00 40 1022.8
20260901134547 80 111 0.0 3.0 0.00 0.00 0.00 37 1023.0
20260901133047 79 80 1.0 3.0 0.00 0.00 0.00 37 1023.0
20260901131611 80 198 1.0 3.0 0.00 0.00 0.00 38 1023.3
20260901130108 79 9 0.0 5.0 0.00 0.00 0.00 36 1023.2
20260901124559 79 148 1.0 3.0 0.00 0.00 0.00 35 1023.3
20260901123055 78 145 0.0 4.0 0.00 0.00 0.00 40 1023.4
20260901121558 78 178 1.0 6.0 0.00 0.00 0.00 40 1023.4
20260901120104 77 148 2.0 6.0 0.00 0.00 0.00 38 1023.5
20260901114600 76 211 3.0 6.0 0.00 0.00 0.00 42 1023.5
20260901113050 76 205 3.0 6.0 0.00 0.00 0.00 44 1023.9
20260901111552 76 178 1.0 4.0 0.00 0.00 0.00 41 1024.4
20260901110059 75 182 0.0 4.0 0.00 0.00 0.00 45 1024.9
20260901104553 73 242 1.0 3.0 0.00 0.00 0.00 43 1025.2
20260901103052 73 206 0.0 4.0 0.00 0.00 0.00 42 1025.4
20260901101559 72 110 0.0 2.0 0.00 0.00 0.00 46 1025.7
20260901100103 71 153 1.0 4.0 0.00 0.00 0.00 45 1026.3
20260901094546 71 0 1.0 4.0 0.00 0.00 0.00 46 1026.6
20260901093124 70 132 1.0 2.0 0.00 0.00 0.00 48 1026.8
20260901091600 68 160 1.0 3.0 0.00 0.00 0.00 54 1027.0
20260901090056 67 165 1.0 2.0 0.00 0.00 0.00 54 1027.2
20260901084557 66 200 1.0 2.0 0.00 0.00 0.00 57 1027.4
20260901083059 64 178 0.0 2.0 0.00 0.00 0.00 58 1027.7
20260901081610 63 190 1.0 3.0 0.00 0.00 0.00 60 1027.9
20260901080100 63 159 0.0 2.0 0.00 0.00 0.00 61 1028.0
20260901074551 60 188 0.0 4.0 0.00 0.00 0.00 64 1028.2
20260901073050 58 34 1.0 4.0 0.00 0.00 0.00 67 1028.3
20260901071603 55 350 2.0 3.0 0.00 0.00 0.00 71 1028.5
20260901070055 53 9 1.0 3.0 0.00 0.00 0.00 74 1028.5
20260901064551 51 351 2.0 3.0 0.00 0.00 0.00 79 1028.5
20260901063045 48 360 1.0 5.0 0.00 0.00 0.00 82 1028.4
20260901061548 45 360 2.0 5.0 0.00 0.00 0.00 85 1028.6
20260901060055 43 349 4.0 8.0 0.00 0.00 0.00 86 1028.4
20260901054550 42 360 3.0 8.0 0.00 0.00 0.00 87 1028.4
20260901053105 41 9 1.0 4.0 0.00 0.00 0.00 88 1028.2
20260901051555 40 0 0.0 4.0 0.00 0.00 0.00 87 1028.3
20260901050052 40 15 2.0 5.0 0.00 0.00 0.00 87 1028.2
20260901044552 41 12 3.0 3.0 0.00 0.00 0.00 88 1028.2
20260901043120 40 352 2.0 5.0 0.00 0.00 0.00 89 1028.0
20260901041609 40 360 2.0 5.0 0.00 0.00 0.00 88 1028.1
20260901034601 42 360 4.0 6.0 0.00 0.00 0.00 87 1027.8
20260901033103 42 352 0.0 3.0 0.00 0.00 0.00 87 1027.8